World > North America > United States > Oregon
Hourly regional weather for Lebanon, OregonLebanon, Oregon Regional Hourly Weather

Lebanon, Oregon Regional Weather

regional weather lebanon, orHOURLY REGIONAL WEATHER FOR LEBANON, OR
Lat: 44.53N, Lon: 122.9W 
Web Search

Pass this page to a friend. Tell them to point their camera at the QR Code near the bottom of this page.

Feedback


°F Click to change Lebanon hourly weather to Imperial units.Click to change Lebanon hourly weather to Metric units. °C
Lebanon Weather Map
UTC Time: 10/28/2021, 12:21
Your Time:

Lebanon, OR Regional Weather

Expires:202110281300;;911391
ASUS46 KPQR 281210
RWROR 

OREGON REGIONAL WEATHER ROUNDUP
NATIONAL WEATHER SERVICE PORTLAND OR
500 AM PDT THU OCT 28 2021

NOTE: "FAIR" INDICATES FEW OR NO CLOUDS BELOW 12,000 FEET WITH
NO SIGNIFICANT WEATHER AND/OR OBSTRUCTIONS TO VISIBILITY.


ORZ001>013-281300-
NORTHWEST OREGON

  
CITY           SKY/WX    TMP DP  RH WIND       PRES   REMARKS
ASTORIA        LGT RAIN  59  57  93 S22G33    30.06S FOG              
6HR MIN TEMP:  51; 6HR MAX TEMP:  59; 6HR PCP:  0.12;                

TILLAMOOK      CLOUDY    59  59 100 S7G17     30.15S FOG              
NEWPORT        DRIZZLE   55  55 100 S17G26    30.21S                  
FLORENCE       LGT RAIN  58  58 100 S13G20    30.21S                  
PORTLAND       CLOUDY    56  52  86 SE7       30.16F                  
6HR MIN TEMP:  53; 6HR MAX TEMP:  56; 6HR PCP: TRACE;                

VANCOUVER WA   LGT RAIN  56  54  93 E6        30.16S                  
6HR MIN TEMP:  53; 6HR MAX TEMP:  56; 6HR PCP: TRACE;                

SCAPPOOSE      CLOUDY    53  51  93 S3        30.13F                  
6HR MIN TEMP:  52; 6HR MAX TEMP:  53; 6HR PCP:  0.01;                

HILLSBORO      CLOUDY    56  54  93 S14       30.14S                  
6HR MIN TEMP:  52; 6HR MAX TEMP:  56; 6HR PCP: TRACE;                

AURORA         CLOUDY    60  55  83 S10G20    30.16S                  
6HR MIN TEMP:  52; 6HR MAX TEMP:  60;                                

MCMINNVILLE    CLOUDY    57  54  89 CALM      30.15F                  
6HR MIN TEMP:  53; 6HR MAX TEMP:  58; 6HR PCP: TRACE;                

SALEM          CLOUDY    59  55  87 SE9       30.17S                  
6HR MIN TEMP:  55; 6HR MAX TEMP:  60;                                

CORVALLIS      CLOUDY    55  54  96 SE5       30.20F                  
EUGENE         CLOUDY    58  55  90 S7        30.21F                  
6HR MIN TEMP:  54; 6HR MAX TEMP:  58; 6HR PCP:  0.01;                

CRESWELL       CLOUDY    55  55 100 CALM      30.22S                  
$$


SKY/WX - Weather  TMP - Temperature  DP - Dew Point  RH - Relative Humidity
WIND - Wind Direction/Speed PRES - Barometric Pressure VSB - Visibility
WCI - Wind Chill Index E13G22 Wind - East Wind 13 mph/Gusts of 22 mph